Location: Maccacari
(45.1333°N, 11.1333°E)
Time: 22:41:26
(UTC+00:00)

CSL-04 Debris - Pass Details

Date: 18 September 2020
Orbit: 827 x 847 km, 98.9° (Epoch: 24 October)

Event Time Altitude Azimuth Distance (km) Brightness Sun altitude
Rises 18:15:11 0° 169° (SSE) 3,358 7.1 -10.5°
Reaches altitude 10° 18:17:32 10° 171° (S) 2,427 6.4 -10.9°
Maximum altitude 18:22:54 75° 256° (WSW) 861 4.4 -11.8°
Drops below altitude 10° 18:28:19 10° 342° (NNW) 2,441 7.1 -12.7°
Sets 18:30:41 0° 345° (NNW) 3,379 7.8 -13.1°
